sat.trackr.live / text

‹ back to catalog

STARLINK-30425

NORAD 57850 · 2023-141L

PAYLOAD ACTIVE UNKNOWN

§ Identity

Operator
Country
US
Launch date
2023-09-12
Launch site
AFWTR
Launch vehicle
Mass (kg)
RCS (m²)

Purposes: comms

External: N2YO · Heavens-Above · Gunter

§ Orbital elements

Epoch: 2026-05-25T02:35:43.556064Z

Period
94.11 min
Inclination
53.1617°
Eccentricity
0.0001341
Mean motion
15.30183926 rev/d
Perigee alt
474.3 km
Apogee alt
476.2 km
Semi-major
6,853.4 km
B*
7.3228e-5
RAAN
289.2412°
Arg perigee
78.4387°
Mean anomaly
281.6765°
Rev number
15,202

§ Raw data

STARLINK-304251 57850U 23141L   26145.10814301  .00001809  00000+0  73228-4 0  99952 57850  53.1617 289.2412 0001341  78.4387 281.6765 15.30183926152027

JSON: /api/v1/satellites/57850 · /tle

For live sub-satellite position, see the globe view (requires WebGL).

§ Visibility from observer

Set your observer location to see the next 7 days of passes ≥ 10°. The values pass through the URL so the page stays shareable.

No JS? Fill the form by hand. The geolocation button needs JavaScript.